User: anonymous   Login
Location: Vancouver
(49.2500°N, 123.1330°W)
Time: 04:22:18
(UTC-07:00)
Language:

Cosmos 1340 Rocket - Orbit

View from above orbital plane
View from above orbital plane
View from above satellite
View from above satellite

Ground track
Ground track

The orbit data is extracted from the following two-line orbital elements,

1 13068U 82013B   17117.89755071 +.00000029 +00000-0 +33903-6 0  9996
2 13068 081.2009 279.8703 0023435 121.3568 238.9954 15.06897008915659
Epoch (UTC): 27 April 2017 21:32:28
Eccentricity: 0.0023435
inclination: 81.2009°
perigee height: 529 km
apogee height: 562 km
right ascension of ascending node: 279.8703°
argument of perigee: 121.3568°
revolutions per day: 15.06897008
mean anomaly at epoch: 238.9954°
orbit number at epoch: 91565

The dashed part of the orbit path shows where the satellite is in the earth's shadow,  

DLR